Temperature
13 13 13 13 13 13 14 14 14 14 15 15 15 15 15 15 15 15 15 16 16 16 16 17 17 17 17 17 17 17 17 17 17 17 17 17 17 17
13 13 13 13 13 13 13 13 13 14 14 14 15 15 15 15 14 15 15 15 15 16 16 16 16 17 17 17 17 17 17 17 17 17 17 17 17 16
13 13 13 13 13 13 13 13 13 13 14 14 14 14 14 14 14 14 14 15 15 15 15 16 16 16 16 17 17 17 17 17 16 16 16 16 16 16
13 13 13 13 13 13 13 13 13 13 13 13 14 14 14 14 14 14 14 14 15 15 15 15 15 16 16 16 16 16 16 16 16 16 16 16 16 16
13 13 13 13 13 13 12 13 13 13 13 13 13 13 13 13 13 14 14 14 14 14 14 15 15 15 15 16 16 16 16 16 16 16 16 16 16 16
13 13 13 13 13 13 12 12 12 13 13 13 13 13 13 13 13 13 13 14 14 14 14 14 14 15 15 15 15 16 16 16 16 16 16 16 16 16
13 13 13 13 13 13 13 13 12 12 12 12 13 13 13 13 13 13 13 13 13 14 14 14 14 14 15 15 15 15 15 15 16 16 16 16 16 16
13 13 13 13 13 13 13 13 13 12 12 12 12 12 12 12 12 13 13 13 13 13 13 14 14 14 14 14 14 15 15 15 15 15 15 15 15 15
13 13 13 13 13 13 13 12 12 12 12 12 12 12 12 12 12 12 12 12 13 13 13 13 14 14 14 14 14 14 14 14 14 15 15 15 15 15
13 13 13 13 13 13 12 12 12 12 12 12 12 12 12 12 12 12 12 12 13 13 12 13 13 13 13 13 13 14 14 14 14 14 14 14 15 15
14 13 13 13 13 13 13 12 12 12 12 12 12 12 12 12 12 12 12 12 12 12 12 12 13 13 13 13 13 13 13 13 13 13 14 14 14 14
13 13 13 13 13 13 13 12 12 12 12 12 12 12 12 12 12 12 12 12 11 12 12 12 12 12 12 13 13 13 13 13 13 13 13 14 14 13
13 13 13 13 13 13 13 12 12 12 12 12 12 12 12 12 12 12 11 11 11 11 11 11 11 11 11 12 12 13 13 13 13 13 13 13 13 13
13 13 13 13 13 13 12 12 12 12 12 12 11 11 11 11 11 11 11 11 11 11 11 11 11 11 11 11 11 12 12 12 12 12 13 13 13 13
13 13 12 12 12 12 12 12 12 12 11 11 11 11 11 11 11 11 11 11 11 11 11 11 11 11 11 11 11 11 12 12 12 12 12 12 12 12
12 12 12 12 12 12 11 11 11 11 11 11 10 10 10 10 10 10 11 11 11 11 11 10 10 10 10 11 11 11 11 11 11 11 11 12 12 12
11 11 11 11 11 11 11 10 10 10 10 10 10 10 10 10 10 10 10 10 10 10 10 10 10 10 10 10 10 10 10 10 11 11 11 11 11 11
11 11 10 10 10 10 10 10 10 10 10 9 9 9 9 9 9 9 9 9 9 9 9 9 9 9 10 10 10 10 10 10 10 10 10 10 11 11
10 10 10 10 10 9 9 9 9 9 9 9 9 8 8 8 8 8 8 8 8 8 8 8 7 7 8 8 9 9 9 9 9 9 9 9 10 10
10 9 9 9 9 9 9 8 8 8 8 8 7 7 7 7 7 7 7 6 6 6 7 6 6 6 6 6 7 8 8 8 8 8 8 9 9 10
9 8 8 8 8 8 8 7 7 7 7 6 6 6 6 6 6 5 5 5 5 5 5 5 5 5 5 6 6 6 7 7 7 7 7 7 8 8
8 8 8 7 7 7 7 6 6 6 6 5 5 5 5 5 5 4 4 4 4 4 4 4 4 5 5 4 5 5 6 6 6 6 6 6 6 6
7 7 7 7 6 6 6 5 5 5 5 5 4 4 4 4 4 4 3 3 3 3 3 3 3 3 3 3 3 3 4 4 5 5 6 6 6 6
Wind_Speed
3 3 3 2 2 2 2 1 1 1 1 1 1 1 1 3 4 4 4 8 10 10 11 11 11 12 13 13 15 16 17 18 18 19 20 21 21 20
1 1 0 1 2 2 1 1 0 1 1 2 1 0 0 0 3 4 4 8 10 11 12 12 12 12 13 14 15 16 17 17 18 19 20 21 21 21
1 1 1 1 1 2 2 1 1 0 1 3 2 2 1 1 0 2 3 5 8 11 12 13 13 13 13 14 15 16 17 17 18 18 19 20 21 22
2 2 1 2 1 1 1 2 1 1 1 2 3 2 2 2 1 2 3 5 5 9 13 14 14 14 14 15 16 16 17 18 18 19 19 20 21 22
0 1 2 2 1 1 0 1 2 1 0 1 3 2 2 2 1 3 4 3 4 6 9 12 14 14 15 15 16 17 17 18 19 19 20 20 20 21
1 1 1 2 3 3 2 3 2 2 2 2 2 2 2 2 1 2 3 3 3 3 4 7 10 13 15 16 16 17 18 18 18 19 20 20 21 21
1 1 3 5 4 2 2 2 3 2 2 2 2 2 2 2 1 1 2 3 4 3 2 3 3 4 7 12 15 17 18 18 18 18 19 20 20 21
2 1 4 5 4 3 2 2 1 1 2 2 2 3 3 2 1 2 2 2 3 2 2 4 3 4 4 6 11 14 16 17 17 18 18 19 19 20
4 1 0 3 4 2 3 4 5 5 5 2 3 3 3 3 2 2 2 3 3 3 2 4 4 5 5 7 10 12 14 15 15 16 17 18 18 19
4 2 1 2 2 1 1 2 3 3 5 4 3 3 2 2 2 2 3 4 5 5 3 4 4 4 5 4 9 10 12 13 14 15 16 17 18 18
4 2 2 3 3 2 2 3 3 3 4 5 6 6 7 6 3 2 3 3 4 4 2 2 3 3 4 4 5 8 10 11 13 14 15 16 17 16
3 3 4 5 5 3 0 2 3 4 4 3 4 6 6 6 7 4 3 3 3 3 2 1 2 2 3 3 2 3 5 9 12 13 14 15 14 9
2 2 3 7 6 4 1 0 1 4 5 5 4 4 3 2 2 2 3 3 3 3 3 2 2 2 3 4 4 4 3 3 4 7 10 13 14 11
2 1 1 6 6 5 2 1 3 4 3 4 3 3 2 2 2 1 2 2 3 5 5 3 3 3 3 5 5 4 4 4 4 4 4 8 10 13
1 1 3 4 3 3 3 2 2 2 2 2 3 3 3 3 3 3 4 4 4 6 6 5 4 4 3 4 4 4 5 5 4 4 4 4 4 4
3 3 4 4 1 1 2 1 0 1 2 2 3 3 4 4 4 4 4 4 4 4 5 5 3 3 4 5 5 6 5 4 4 5 5 5 4 4
1 3 3 2 1 1 1 2 2 3 3 3 3 4 4 4 4 4 4 4 4 4 5 5 5 4 5 5 5 6 6 5 5 5 4 5 5 5
2 2 2 2 3 3 3 3 3 3 3 3 3 3 3 4 4 4 4 4 4 5 5 5 6 5 5 4 3 4 4 5 6 6 5 5 6 6
5 4 4 4 4 4 3 3 2 2 2 2 3 3 3 3 4 4 4 4 4 4 5 5 5 4 5 6 6 4 5 7 6 6 5 5 7 7
4 5 4 4 4 3 3 3 2 2 2 2 2 3 3 3 3 4 4 4 4 4 5 4 4 3 3 5 5 7 9 6 5 6 6 6 6 9
5 4 4 4 4 4 3 2 2 2 2 2 2 3 3 3 3 4 4 6 5 4 5 5 5 8 5 5 6 6 6 9 9 7 6 7 7 6
5 5 4 4 4 3 2 1 1 1 2 2 2 2 3 3 4 5 5 5 4 5 5 5 6 6 5 6 8 8 8 8 9 13 12 9 6 6
5 5 4 4 3 3 2 1 1 2 2 2 2 3 3 4 4 4 5 5 5 6 6 6 6 5 6 6 8 8 10 10 8 8 7 11 15 17
Wind_Direction
25 15 11 353 13 28 37 43 72 355 320 355 40 67 105 112 148 208 217 206 210 216 222 228 232 235 236 235 236 236 235 233 231 229 226 226 227 228
184 173 323 3 15 359 350 334 65 126 299 325 305 292 59 206 198 230 236 215 222 226 228 229 232 236 238 238 237 236 237 236 234 232 231 230 229 229
355 79 91 99 40 341 346 345 333 130 260 304 327 338 336 307 220 276 272 240 239 232 227 229 233 236 240 241 239 237 236 236 236 235 233 232 232 231
348 13 25 77 67 343 1 340 315 263 213 286 312 327 325 312 292 276 271 263 252 232 227 230 234 237 241 242 241 239 237 236 236 236 236 235 235 234
276 25 29 57 20 6 6 310 307 311 268 268 287 301 295 295 317 297 287 284 278 251 235 236 238 239 241 242 242 241 240 239 238 237 236 237 237 237
173 147 108 69 45 16 5 355 350 351 335 304 285 288 286 287 280 281 302 301 293 293 279 259 246 241 241 242 244 243 242 240 239 239 238 239 239 239
299 144 130 126 112 81 30 357 356 347 328 309 297 299 295 308 286 272 286 287 281 266 279 275 258 246 244 246 245 246 244 242 241 242 241 241 240 240
301 169 149 148 158 177 213 246 265 287 304 315 304 300 296 300 308 301 294 310 298 300 307 286 274 264 251 246 241 239 241 241 242 242 242 241 241 241
307 320 130 142 153 187 240 242 245 242 239 255 286 289 299 314 327 319 309 294 273 277 302 280 274 269 263 265 252 242 237 239 241 242 242 242 241 241
275 272 239 136 118 89 302 273 255 237 231 233 243 268 290 316 317 294 284 286 279 270 239 253 270 269 273 270 265 249 243 244 246 247 246 245 244 242
241 227 167 132 120 74 354 315 310 302 246 232 233 250 264 274 266 291 289 290 293 288 249 233 275 287 278 270 273 261 253 254 255 254 252 249 247 245
221 182 155 145 142 122 30 333 333 330 336 324 281 268 258 258 246 220 236 269 292 298 309 319 299 326 312 292 295 297 274 268 266 263 261 258 252 242
275 203 161 154 153 156 154 5 313 322 324 318 305 296 285 267 233 219 223 228 253 268 298 338 307 306 278 294 297 283 272 272 269 269 264 261 252 232
308 349 143 161 167 176 179 254 319 329 307 303 309 324 342 347 344 336 296 267 249 256 274 282 268 276 286 290 288 292 293 278 267 268 262 260 254 243
241 104 150 167 164 183 212 253 308 317 316 327 342 352 352 351 350 339 328 312 291 286 286 275 264 270 267 275 284 289 301 290 271 269 274 266 254 240
214 177 161 150 128 99 137 210 266 34 26 13 1 356 357 1 358 353 344 338 331 318 318 327 314 297 288 280 280 287 287 285 300 297 292 286 274 246
178 148 141 139 151 135 99 80 60 49 39 19 10 6 5 2 356 353 352 344 338 332 333 335 329 312 283 274 283 284 289 293 295 302 305 298 286 276
119 128 125 117 107 91 82 73 63 53 38 26 22 15 2 354 350 350 354 356 348 343 340 336 340 340 338 313 287 310 320 316 316 312 309 302 297 294
97 94 90 87 88 86 82 79 68 50 41 32 23 16 7 358 357 353 352 353 347 338 331 333 349 1 346 325 317 351 331 313 312 312 307 300 295 296
96 103 103 100 97 92 85 77 68 49 42 29 20 16 7 356 352 348 344 345 335 327 327 334 346 346 311 290 288 296 305 304 312 307 302 298 286 285
114 111 108 104 99 93 86 72 64 56 36 25 23 16 3 356 350 343 336 336 335 328 327 319 305 309 294 300 300 299 302 304 301 296 300 305 306 301
122 119 114 109 104 101 98 83 45 40 37 34 27 16 6 0 346 337 331 327 323 318 316 310 315 326 327 315 307 303 304 309 307 302 291 281 285 289
130 125 122 118 112 106 95 65 47 49 49 37 23 12 4 350 334 325 322 321 318 317 317 316 318 318 311 304 303 303 304 308 311 312 304 299 295 287
Height
1495 1495 1496 1496 1497 1497 1498 1499 1500 1500 1501 1502 1503 1503 1504 1505 1506 1507 1508 1509 1511 1513 1515 1516 1518 1519 1521 1523 1525 1527 1529 1530 1532 1534 1536 1538 1540 1542
1495 1495 1495 1495 1496 1497 1497 1498 1499 1500 1500 1501 1502 1502 1503 1503 1504 1504 1505 1506 1507 1509 1510 1512 1513 1515 1516 1518 1520 1522 1523 1525 1527 1529 1531 1533 1535 1536
1495 1495 1495 1495 1495 1496 1496 1497 1497 1498 1499 1499 1500 1501 1501 1502 1502 1502 1503 1503 1504 1505 1506 1507 1508 1510 1511 1513 1514 1516 1518 1520 1522 1523 1525 1527 1529 1531
1495 1495 1495 1495 1495 1495 1495 1495 1496 1497 1497 1498 1498 1499 1499 1499 1499 1499 1500 1500 1500 1501 1502 1502 1503 1504 1506 1507 1509 1510 1512 1514 1515 1517 1519 1521 1522 1524
1494 1494 1494 1494 1494 1494 1494 1494 1495 1495 1496 1496 1496 1496 1497 1497 1497 1497 1497 1497 1497 1497 1498 1498 1499 1499 1500 1501 1503 1504 1506 1507 1509 1510 1512 1514 1515 1517
1494 1494 1494 1493 1493 1493 1493 1493 1493 1494 1494 1494 1494 1494 1494 1494 1494 1494 1494 1494 1494 1494 1494 1494 1495 1495 1496 1496 1497 1498 1499 1501 1502 1503 1505 1506 1508 1510
1494 1494 1493 1493 1492 1492 1492 1492 1492 1492 1492 1492 1492 1492 1492 1492 1492 1491 1491 1491 1491 1491 1490 1490 1490 1490 1491 1491 1492 1492 1493 1494 1495 1496 1498 1499 1501 1502
1493 1493 1492 1492 1492 1491 1491 1491 1491 1490 1490 1490 1490 1490 1490 1490 1489 1489 1489 1488 1487 1488 1487 1486 1486 1486 1486 1487 1487 1487 1488 1488 1489 1490 1491 1492 1493 1494
1491 1492 1492 1491 1490 1490 1490 1490 1489 1489 1489 1489 1488 1488 1487 1487 1487 1486 1486 1485 1485 1485 1484 1482 1483 1482 1482 1482 1482 1482 1482 1482 1482 1483 1484 1485 1485 1486
1490 1490 1490 1489 1489 1489 1488 1488 1488 1487 1487 1487 1486 1486 1485 1485 1484 1484 1483 1483 1482 1482 1481 1480 1479 1478 1478 1478 1477 1477 1477 1477 1477 1477 1477 1477 1478 1479
1487 1487 1488 1487 1487 1487 1487 1486 1486 1485 1485 1485 1484 1484 1483 1483 1482 1481 1481 1480 1478 1478 1478 1477 1476 1475 1474 1473 1473 1473 1472 1472 1471 1471 1470 1470 1471 1471
1485 1485 1485 1485 1485 1485 1484 1484 1483 1483 1483 1482 1482 1482 1481 1481 1480 1479 1479 1478 1477 1476 1475 1475 1473 1472 1470 1469 1469 1469 1468 1467 1466 1465 1465 1464 1464 1464
1482 1482 1482 1482 1482 1482 1482 1482 1482 1481 1481 1480 1480 1480 1479 1479 1478 1477 1477 1476 1475 1474 1473 1472 1470 1470 1469 1466 1465 1464 1463 1462 1461 1460 1459 1459 1458 1458
1478 1478 1479 1479 1480 1480 1480 1480 1480 1479 1479 1478 1478 1478 1478 1477 1476 1475 1474 1474 1473 1472 1471 1470 1468 1467 1465 1463 1461 1460 1459 1458 1457 1456 1455 1454 1453 1452
1473 1474 1475 1476 1476 1477 1477 1477 1477 1477 1477 1476 1476 1476 1475 1475 1474 1473 1471 1470 1469 1469 1468 1466 1465 1464 1463 1461 1458 1457 1455 1454 1453 1452 1450 1449 1448 1447
1469 1470 1471 1472 1473 1474 1474 1475 1475 1475 1474 1474 1474 1474 1473 1472 1471 1470 1468 1467 1466 1465 1465 1463 1462 1460 1458 1457 1455 1453 1452 1451 1449 1448 1446 1445 1444 1442
1466 1467 1468 1469 1470 1471 1471 1472 1472 1472 1472 1472 1471 1471 1470 1469 1468 1467 1466 1464 1463 1462 1460 1459 1458 1457 1455 1454 1451 1450 1448 1447 1445 1444 1442 1439 1439 1438
1463 1464 1465 1466 1467 1468 1468 1469 1469 1469 1469 1469 1468 1468 1467 1466 1465 1464 1463 1462 1460 1459 1457 1456 1454 1451 1450 1449 1449 1446 1444 1442 1440 1439 1437 1434 1432 1432
1460 1461 1462 1463 1464 1465 1466 1466 1467 1467 1466 1466 1465 1465 1464 1463 1462 1461 1460 1459 1458 1456 1455 1453 1451 1449 1446 1444 1443 1443 1441 1438 1435 1433 1432 1430 1427 1425
1457 1458 1459 1461 1462 1462 1463 1464 1464 1464 1464 1463 1463 1462 1461 1461 1460 1459 1457 1456 1455 1453 1452 1450 1449 1447 1445 1442 1439 1437 1437 1434 1431 1428 1425 1423 1421 1419
1454 1456 1457 1458 1459 1460 1460 1461 1461 1461 1461 1461 1460 1460 1459 1458 1457 1456 1455 1453 1452 1450 1448 1447 1445 1444 1441 1438 1435 1432 1431 1430 1428 1425 1421 1418 1414 1411
1452 1453 1454 1455 1456 1457 1457 1458 1458 1458 1458 1458 1457 1457 1456 1455 1454 1453 1452 1450 1449 1447 1445 1443 1441 1439 1437 1434 1430 1427 1424 1422 1421 1419 1418 1415 1412 1407
1449 1450 1451 1452 1453 1454 1455 1455 1456 1456 1455 1455 1454 1454 1453 1452 1451 1449 1448 1446 1445 1443 1441 1438 1436 1434 1431 1429 1426 1422 1419 1416 1413 1410 1409 1408 1406 1403